COSMOS 2456 (730)

Last updated on Tue Sep 16 2025 00:03:19 GMT+0000 (Coordinated Universal Time)

1 36111U 09070A 25258.10183731 .00000034 00000+0 00000+0 0 9999 2 36111 64.8492 80.3672 0001743 350.3078 188.7399 2.13103616122568
UTC large
Height (km)
Speed (km/s)
/
Latitude / Longitude
Inclination (degrees)
Orbital Period (minutes)
Azimuth
Elevation
Range (km)
Doppler Factor

Next 0 passes for location: London (51.5072 / 0.1276)

Sorry there are no passes over London.